Location: Fort Wayne
(41.1310°N, 85.1290°W)
Time: 18:29:59
(UTC-04:00)

Cosmos 1980 - Visible Passes

Search period start: 01 August 2014 00:00
Search period end: 11 August 2014 00:00
Orbit: 841 x 846 km, 71.0° (Epoch: 31 July)

Date Brightness Start Highest point End Pass type
(mag) Time Alt. Az. Time Alt. Az. Time Alt. Az.
01 Aug 4.7 00:02:47 10° NW 00:07:51 35° WSW 00:08:49 33° SW visible
01 Aug 4.7 22:04:18 10° N 22:09:21 33° ENE 22:12:58 17° ESE visible
01 Aug 4.7 23:48:19 10° NW 23:53:26 37° WSW 23:54:49 32° SW visible
02 Aug 4.7 21:49:54 10° N 21:54:54 31° ENE 21:59:01 14° ESE visible
02 Aug 4.7 23:33:51 10° NW 23:39:02 38° WSW 23:40:52 30° SW visible
03 Aug 4.8 21:35:31 10° N 21:40:28 30° NE 21:45:06 11° ESE visible
03 Aug 4.6 23:19:24 10° NW 23:24:37 40° WSW 23:26:58 27° SSW visible
04 Aug 4.8 21:21:07 10° N 21:26:01 29° NE 21:30:52 10° ESE visible
04 Aug 4.6 23:04:57 10° NW 23:10:13 42° WSW 23:13:07 24° SSW visible
05 Aug 4.6 22:50:29 10° NW 22:55:48 43° WSW 22:59:19 20° SSW visible
06 Aug 4.5 22:36:02 10° NW 22:41:23 45° WSW 22:45:34 16° S visible
07 Aug 4.5 22:21:35 10° NW 22:26:59 47° WSW 22:31:54 12° S visible
08 Aug 4.5 22:07:08 10° NW 22:12:34 49° WSW 22:17:58 10° S visible
09 Aug 4.4 21:52:42 10° NNW 21:58:09 52° WSW 22:03:35 10° S visible
10 Aug 4.4 21:38:15 10° NNW 21:43:44 54° WSW 21:49:12 10° S visible
